Regional Weather Roundup
Issued by NWS

Home | Current Version | Previous Version | Graphics & Text | Print | Product List | Glossary Off
Versions: 1 2 3 4 5 6 7 8 9 10 11 12 13 14 15 16 17 18 19 20 21 22 23 24 25 26 27 28 29 30 31 32 33 34 35 36 37 38 39 40 41 42 43 44 45 46 47 48 49 50

886
ASUS43 KMKX 262321
RWRWI

WISCONSIN REGIONAL WEATHER ROUNDUP
NATIONAL WEATHER SERVICE MILWAUKEE/SULLIVAN WI
500 PM CST SUN FEB 26 2017

NOTE: "FAIR" INDICATES FEW OR NO CLOUDS BELOW 12,000 FEET WITH NO
SIGNIFICANT WEATHER AND/OR OBSTRUCTIONS TO VISIBILITY.

WIZ001-002-006>008-014>016-023>028-270000-
NORTHWEST WISCONSIN

CITY           SKY/WX    TMP DP  RH WIND       PRES   REMARKS
SUPERIOR ARPT  CLEAR     24   4  42 W9        29.87R WCI  15
ASHLAND        CLEAR     25   5  42 W12       29.85R WCI  14
HAYWARD        CLEAR     28   7  41 NW9       29.83R WCI  19
SIREN          CLEAR     30   8  39 NW9       29.86R WCI  21
CUMBERLAND     CLEAR     30   9  40 NW12G18   29.83R WCI  21
RICE LAKE      CLEAR     32  10  40 W12       29.85R WCI  23
CHETEK         CLEAR     32  16  52 NW6       29.83R WCI  26
LADYSMITH      MOCLDY    32  18  56 NW12      29.82R WCI  23
EAU CLAIRE     CLOUDY    34  23  64 SW10      29.83R WCI  26
MENOMONIE      PTCLDY    36  15  42 W12       29.84R WCI  27
NEW RICHMOND   CLEAR     33  12  42 NW10      29.85R WCI  25
OSCEOLA        CLEAR     33  13  44 NW9       29.89R WCI  25
$$

WIZ003>005-009-010-017-018-270000-
NORTH CENTRAL WISCONSIN

CITY           SKY/WX    TMP DP  RH WIND       PRES   REMARKS
MANITOWISH WTR CLEAR     23  14  68 NW14G20   29.77R WCI  11
ARBOR VITAE    PTCLDY    27  18  69 NW10        N/A  WCI  17
WOODRUFF       PTCLDY    27  18  69 NW10        N/A  WCI  17
RHINELANDER    FLURRIES  30  23  75 W13       29.75R WCI  20
EAGLE RIVER    CLOUDY    27  17  68 NW13G21   29.75R WCI  16
LAND O LAKES   MOCLDY    24  18  77 NW8G16    29.77R WCI  15
PHILLIPS       MOCLDY    29  16  58 NW9G18    29.77R WCI  20
TOMAHAWK       LGT SNOW  30  23  75 W14G20    29.78R WCI  19
MEDFORD        CLOUDY    31  21  66 W8        29.78R WCI  23
MERRILL        NOT AVBL
$$

WIZ029-030-035-036-043>047-270000-
CENTRAL WISCONSIN

CITY           SKY/WX    TMP DP  RH WIND       PRES   REMARKS
WAUSAU         CLEAR     33  20  58 W13G21    29.78R WCI  24
MOSINEE        NOT AVBL
MARSHFIELD     CLEAR     32  18  56 W9        29.80R WCI  24
STEVENS POINT  PTCLDY    35  18  50 W12G17    29.81R WCI  26
WAUPACA        MOCLDY    40  22  49 W13       29.82R WCI  33
WAUTOMA        CLOUDY    38  24  57 SW17G24   29.84R WCI  28
WISC RAPIDS    PTCLDY    37  21  52 W14G22    29.83R WCI  28
CAMP DOUGLAS   MOCLDY    38  24  55 W18       29.84R WCI  28
$$

WIZ011>013-019>022-031-037>040-048>050-270000-
NORTHEAST WISCONSIN

CITY           SKY/WX    TMP DP  RH WIND       PRES   REMARKS
ANTIGO         PTCLDY    30  20  66 W12       29.76R WCI  20
SHAWANO        MOCLDY    38  19  45 W12G21    29.81R WCI  31
OCONTO         CLOUDY    37  21  52 W13       29.79R WCI  29
STURGEON BAY   PTCLDY    37  22  54 W12G21    29.80R WCI  29
GREEN BAY      CLOUDY    39  23  52 W13       29.81R WCI  31
MANITOWOC      CLEAR     38  25  59 SW14      29.84R WCI  30
APPLETON       MOCLDY    37  19  48 SW13G18   29.79R WCI  29
CLINTONVILLE   CLOUDY    37  19  48 W14       29.81R WCI  29
OSHKOSH        CLEAR     38  23  55 SW9       29.83R WCI  31
$$

WIZ032>034-041-042-053>061-270000-
SOUTHWEST WISCONSIN

CITY           SKY/WX    TMP DP  RH WIND       PRES   REMARKS
LA CROSSE      CLEAR     39  22  50 W14       29.89R WCI  31
SPARTA         CLEAR     38  20  49 W8G18     29.87R WCI  32
VIROQUA        PTCLDY    35  23  61 W14       29.88R WCI  26
BOSCOBEL       CLEAR     42  22  44 W8        29.90R
PRAIRIE DU CHI CLEAR     40  24  54 W13       29.92R WCI  32
PLATTEVILLE    CLEAR     41  27  56 W16       29.90S
$$

WIZ056-057-062-063-064-067-068-270000-
SOUTH CENTRAL WISCONSIN

CITY           SKY/WX    TMP DP  RH WIND       PRES   REMARKS
REEDSBURG      PTCLDY    38  24  56 SW13G18   29.87R WCI  30
BARABOO/DELLS  PTCLDY    39  22  51 W9G16     29.86R WCI  33
LONE ROCK      CLEAR     41  22  46 W14G21    29.89R
MINERAL POINT  PTCLDY    41  28  60 W9        29.89R
MADISON        PTCLDY    40  25  55 SW8       29.88R WCI  34
MIDDLETON      CLEAR     42  26  53 SW14G22   29.88S
WATERTOWN      PTCLDY    41  24  52 SW9G20    29.88R
MONROE         CLEAR     43  23  45 W17G24    29.89R
JANESVILLE     PTCLDY    46  19  34 W17G31    29.89R
$$

WIZ051-052-058>065-066-070>072-270000-
SOUTHEAST WISCONSIN

CITY           SKY/WX    TMP DP  RH WIND       PRES   REMARKS
MILWAUKEE      PTCLDY    45  22  40 W14G24    29.90R
WAUKESHA       PTCLDY    39  21  48 W17G25    29.89R WCI  30
MILWAUKEE/TIMM PTCLDY    43  19  39 W20G28    29.89R
RACINE         CLEAR     44  22  41 SW12G22   29.92R
KENOSHA        CLEAR     43  23  45 W18G28    29.91R
FOND DU LAC    CLEAR     38  26  62 SW10      29.85R WCI  31
SHEBOYGAN      CLEAR     38  25  59 SW15      29.85R WCI  29
WEST BEND      CLEAR     39  25  56 W12G18    29.87R WCI  32
JUNEAU         CLEAR     37  27  66 SW13      29.88R WCI  29
$$

LSZ147-162-270000-
LAKE SUPERIOR

STATION/POSITION TIME  TEMP    WIND        PRES    WAVE
                       AIR SEA DIR/SP/G            HT/PER
                 (UTC) (F)     (DEG/KT/KT) (MB)    (FT/S)
DEVILS ISLAND    2300   25     270/ 16/ 20 1011.3R
PORT WING        2240   25     270/ 14/ 21 1011.2R
SAXON HARBOR     2230   27     300/ 13/ 18 1010.2R
$$

LMZ867-665-643>646-270000-
LAKE MICHIGAN

STATION/POSITION TIME  TEMP    WIND        PRES    WAVE
                       AIR SEA DIR/SP/G            HT/PER
                 (UTC) (F)     (DEG/KT/KT) (MB)    (FT/S)
CHAMBERS ISLAND  2240   36     210/  7/ 17 1007.8R
NORTHPORT PIER   2240   35     220/  6/ 12 1007.8R
SISTER BAY       2235   36     250/ 15/ 20   N/A
ALGOMA LAKESHORE 2126          250/ 20/ 26   N/A
KEWAUNEE LAKESHO 2300   38     230/ 12/ 15 1009.2
SHEBOYGAN LAKESH 2300   40     230/ 14/ 17 1011.7R
PORT WASHINGTON  2240   44     250/  9/ 16 1012.5R
MILWAUKEE LAKESH 2300   44     260/ 14/ 18   N/A
KENOSHA   LAKESH 2300   45     250/ 14/ 21 1013.2
$$

TC  - TEMPERATURE IN CELSIUS
VSB - VISIBILITY IN STATUTE MILES
WCI - WIND CHILL INDEX
HX  - HEAT INDEX





USA.gov is the U.S. government's official web portal to all federal, state and local government web resources and services.